"Time","Temp","Dewpoint","Humidity","Pressure","Direction","Speed","Gust","Precip","PrecipRate"
"00:04:56","31.1","22.2","69.4","30.28","296","0.4","2.4","0.00","0.00"
"00:09:57","30.8","22.2","70","30.28","296","1.5","3.6","0.00","0.00"
"00:14:56","30.8","22.2","70","30.28","325","3.2","7.2","0.00","0.00"
"00:19:59","31","22.4","70","30.27","336","2.7","4.8","0.00","0.00"
"00:24:59","31.1","22.2","69.3","30.27","336","1.7","4.8","0.00","0.00"
"00:29:59","31.3","22.2","68.7","30.27","337","1.5","4.8","0.00","0.00"
"00:34:58","31.4","22.1","68","30.27","338","0.3","3.6","0.00","0.00"
"00:39:56","31.4","22.1","68","30.27","337","1.5","4.8","0.00","0.00"
"00:44:59","31.2","22.1","68.7","30.27","337","2.7","4.8","0.00","0.00"
"00:49:57","31.1","22.1","69.2","30.27","338","3.5","7.2","0.00","0.00"
"00:54:58","31.1","22","68.8","30.27","350","1.8","6.9","0.00","0.00"
"00:59:57","31","22","69","30.27","350","0","1.2","0.00","0.00"
"01:04:56","30.9","21.8","68.6","30.27","350","0","0","0.00","0.00"
"01:09:56","30.6","21.6","69","30.27","350","0","1.2","0.00","0.00"
"01:14:57","30.4","21.4","69","30.27","350","1.6","3.6","0.00","0.00"
"01:19:56","30.3","21.3","69","30.27","350","1.8","3.6","0.00","0.00"
"01:24:57","30.3","21.3","69","30.27","350","1.5","3.6","0.00","0.00"
"01:29:56","30.2","21.3","69.2","30.27","350","0.5","3.6","0.00","0.00"
"01:34:56","30.1","21.2","69","30.27","350","0","0","0.00","0.00"
"01:39:57","30","21.1","69","30.27","350","0","0","0.00","0.00"
"01:44:56","29.8","20.9","69","30.27","350","0","0","0.00","0.00"
"01:49:56","29.7","20.8","69","30.27","350","0","0","0.00","0.00"
"01:54:56","29.4","20.8","70","30.27","350","0","0","0.00","0.00"
"01:59:56","29.1","21.1","71.5","30.27","350","0","0","0.00","0.00"
"02:04:59","28.8","21","72.5","30.27","350","0","0","0.00","0.00"
"02:09:59","28.4","21.1","73.6","30.27","350","0","0","0.00","0.00"
"02:14:45","28.2","21","74","30.28","350","0","0","0.00","0.00"
"02:19:56","28.1","20.8","73.6","30.28","350","0","0","0.00","0.00"
"02:24:56","28.1","20.7","73.2","30.28","350","0","0","0.00","0.00"
"02:29:56","28.2","21","74","30.28","350","0","0","0.00","0.00"
"02:34:59","28.2","21","74","30.28","350","0","0","0.00","0.00"
"02:39:57","28.1","20.9","74","30.28","350","0","0","0.00","0.00"
"02:44:57","28.1","20.9","74","30.29","350","0","0","0.00","0.00"
"02:49:56","27.9","21","75","30.29","350","0","0","0.00","0.00"
"02:54:56","27.7","20.9","75.1","30.29","350","0","0","0.00","0.00"
"02:59:59","27.6","21","75.9","30.29","350","0","0","0.00","0.00"
"03:04:58","27.5","20.7","75.5","30.28","350","0","3.6","0.00","0.00"
"03:09:58","27.3","21.1","77","30.28","350","1.8","3.6","0.00","0.00"
"03:14:59","27.2","21.4","78.7","30.28","350","2.4","4.8","0.00","0.00"
"03:19:58","27.1","21.4","78.5","30.28","350","2","4.6","0.00","0.00"
"03:24:57","27.2","20.9","77.1","30.28","350","1.6","3.6","0.00","0.00"
"03:29:56","27.4","20.9","76.3","30.28","350","1.7","4.8","0.00","0.00"
"03:34:59","27.6","20.5","74.4","30.28","347","2.4","4.8","0.00","0.00"
"03:39:56","28","20","71.5","30.28","330","3.3","6","0.00","0.00"
"03:44:56","28.6","20","69.6","30.28","308","3.2","7.2","0.00","0.00"
"03:49:59","29","19.8","68","30.27","306","2.4","6","0.00","0.00"
"03:54:59","29.2","19.7","67.4","30.27","309","1.5","3.6","0.00","0.00"
"03:59:58","29.2","19.6","67","30.27","309","2.1","3.6","0.00","0.00"
"04:04:57","29.3","19.3","66.1","30.27","308","3.2","7.2","0.00","0.00"
"04:09:56","29.3","19.3","66","30.27","306","3.1","4.8","0.00","0.00"
"04:14:57","29.3","19.1","65.2","30.27","310","2.3","4.8","0.00","0.00"
"04:19:59","29.3","19","65.2","30.27","310","2","3.6","0.00","0.00"
"04:24:59","29.2","18.9","65.2","30.27","310","2.5","4.8","0.00","0.00"
"04:29:57","29.1","18.9","65.3","30.27","311","1.9","4.6","0.00","0.00"
"04:34:57","28.9","19.1","66.1","30.27","311","0.6","2.4","0.00","0.00"
"04:39:59","28.6","19.3","67.6","30.27","311","0","1.2","0.00","0.00"
"04:44:58","28.3","19.1","68","30.27","311","0","0","0.00","0.00"
"04:49:57","28","18.8","68.2","30.27","311","0","0","0.00","0.00"
"04:54:57","27.7","18.8","69","30.27","311","0","0","0.00","0.00"
"04:59:56","27.4","18.6","69","30.28","311","0","0","0.00","0.00"
"05:04:59","27.2","18.6","69.6","30.28","311","0","0","0.00","0.00"
"05:09:59","27","18.6","70.1","30.28","311","0","0","0.00","0.00"
"05:14:56","26.8","18.8","71.2","30.29","311","0","0","0.00","0.00"
"05:19:59","26.7","18.7","71.4","30.29","311","0","0","0.00","0.00"
"05:24:58","26.5","18.9","72.7","30.29","311","0.8","2.4","0.00","0.00"
"05:29:57","26.4","19.1","73.7","30.29","311","0.8","2.4","0.00","0.00"
"05:34:57","26.3","19.3","74.5","30.29","311","0.2","1.2","0.00","0.00"
"05:39:58","26.3","19.7","75.8","30.29","311","0","0","0.00","0.00"
"05:44:58","26.3","19.8","76","30.29","311","0","0","0.00","0.00"
"05:49:57","26.3","20.1","76.9","30.29","311","0","0","0.00","0.00"
"05:54:56","26.3","19.9","76.3","30.29","311","0.1","1.2","0.00","0.00"
"05:59:59","26.4","19.9","76","30.29","311","0.9","2.4","0.00","0.00"
"06:04:58","26.6","20.1","76","30.29","311","0.1","1.2","0.00","0.00"
"06:09:58","26.6","20.4","76.9","30.29","311","0","0","0.00","0.00"
"06:14:56","26.7","20.5","77","30.30","311","0","0","0.00","0.00"
"06:19:59","26.7","20.5","77","30.30","311","0","0","0.00","0.00"
"06:24:59","26.6","20.5","77.1","30.30","311","0","0","0.00","0.00"
"06:29:58","26.6","20.7","78.2","30.30","311","0","0","0.00","0.00"
"06:34:57","26.5","20.9","79","30.30","311","0","0","0.00","0.00"
"06:39:58","26.4","20.7","78.7","30.30","311","0","0","0.00","0.00"
"06:44:57","26.3","20.4","78","30.30","311","0","0","0.00","0.00"
"06:49:56","26.3","20.5","78.3","30.30","300","0.8","3.6","0.00","0.00"
"06:54:56","26.3","20.4","78","30.30","300","0.7","3.6","0.00","0.00"
"06:59:59","26.5","20.3","77.1","30.31","300","0","0","0.00","0.00"
"07:04:58","26.6","20.4","77","30.31","300","0","0","0.00","0.00"
"07:09:58","26.6","20.4","77","30.31","300","0","0","0.00","0.00"
"07:14:59","26.6","20.4","77","30.31","300","0","0","0.00","0.00"
"07:19:59","26.6","20.1","76","30.31","300","0","0","0.00","0.00"
"07:24:58","26.7","20.3","76.4","30.31","300","0","0","0.00","0.00"
"07:29:57","26.6","20.4","77","30.31","300","0","0","0.00","0.00"
"07:34:56","26.7","20.5","77.1","30.31","300","0","2.4","0.00","0.00"
"07:39:54","26.8","20.8","77.8","30.31","295","1.5","4.8","0.00","0.00"
"07:44:57","26.9","20.8","77.3","30.32","198","1.7","4.8","0.00","0.00"
"07:49:59","27","20.8","77.2","30.32","198","1.4","3.6","0.00","0.00"
"07:54:59","27.2","20.9","77","30.32","198","0.9","3.5","0.00","0.00"
"07:59:59","27.4","21.1","76.9","30.32","198","1.2","4.8","0.00","0.00"
"08:04:57","27.6","21.3","77","30.32","198","0.2","2.4","0.00","0.00"
"08:09:57","27.8","21.5","77","30.32","198","0.2","1.2","0.00","0.00"
"08:14:56","28","21.7","77","30.32","198","0","0","0.00","0.00"
"08:19:56","28.2","21.9","77","30.32","198","0.8","3.6","0.00","0.00"
"08:24:57","28.4","22","76.7","30.32","198","1.2","3.5","0.00","0.00"
"08:29:57","28.6","22.3","76.8","30.32","198","0.7","2.4","0.00","0.00"
"08:34:58","28.8","22.5","77","30.32","198","0","0","0.00","0.00"
"08:39:57","29","22.7","77","30.32","198","0","0","0.00","0.00"
"08:44:57","29.3","22.9","76.8","30.32","198","0","0","0.00","0.00"
"08:49:57","29.5","22.6","75","30.32","198","0.7","2.4","0.00","0.00"
"08:54:59","29.7","22.7","74.9","30.32","198","0","1.2","0.00","0.00"
"08:59:59","29.9","22.6","74","30.32","198","0.3","2.4","0.00","0.00"
"09:04:58","30.2","23","74.3","30.32","198","0.2","3.6","0.00","0.00"
"09:09:58","30.4","22.9","73.4","30.32","198","0.7","3.5","0.00","0.00"
"09:14:57","30.7","23.1","73.2","30.32","197","0.8","3.6","0.00","0.00"
"09:19:56","30.9","23.3","73.2","30.32","198","0.9","3.6","0.00","0.00"
"09:24:58","31","23.3","72.6","30.32","198","0","0","0.00","0.00"
"09:29:59","31.4","23.3","71.8","30.32","198","0","0","0.00","0.00"
"09:34:59","32","23.5","70.5","30.32","198","0","0","0.00","0.00"
"09:39:57","32.6","23.6","69.1","30.32","198","0.8","4.8","0.00","0.00"
"09:44:57","33.1","23.8","68.2","30.32","198","1.9","4.6","0.00","0.00"
"09:49:57","33.7","24.5","68.7","30.31","198","2.4","4.8","0.00","0.00"
"09:54:58","34.3","24.6","67.4","30.31","194","2.7","6","0.00","0.00"
"09:59:58","34.9","24.6","65.7","30.31","168","3.7","7.2","0.00","0.00"
"10:04:57","35.5","25.3","66.2","30.30","200","3.9","7.2","0.00","0.00"
"10:09:56","36.1","25.3","64.5","30.30","182","3.7","7.2","0.00","0.00"
"10:14:58","36.5","25.4","64","30.30","197","3.7","6","0.00","0.00"
"10:19:58","36.9","25.5","63.1","30.30","183","3.3","8.4","0.00","0.00"
"10:24:58","37.3","25.2","61.2","30.30","195","3.3","6.9","0.00","0.00"
"10:29:58","37.7","25.7","61.7","30.30","197","4","7.2","0.00","0.00"
"10:34:58","38.1","25.5","60.3","30.29","198","2.7","7.2","0.00","0.00"
"10:39:58","38.7","25.9","59.8","30.29","168","3","6","0.00","0.00"
"10:44:58","39","26","59.2","30.29","144","2.7","4.8","0.00","0.00"
"10:49:57","39.4","26.5","59.6","30.29","202","4.1","7.2","0.00","0.00"
"10:54:58","39.8","26.2","58.2","30.29","183","3.7","9.6","0.00","0.00"
"10:59:58","40","26.3","57.8","30.29","144","2.8","6","0.00","0.00"
"11:04:57","40.2","26.2","57","30.28","176","2.6","10.8","0.00","0.00"
"11:09:56","40.5","26.1","56.2","30.28","195","4.7","10.4","0.00","0.00"
"11:14:58","40.7","25.6","54.4","30.28","179","3.6","7.2","0.00","0.00"
"11:19:58","40.8","25.8","54.8","30.27","181","3.4","8.4","0.00","0.00"
"11:24:56","41.3","26.3","55","30.27","211","4.1","6","0.00","0.00"
"11:29:56","41.4","25.4","52.8","30.27","168","5.4","12","0.00","0.00"
"11:34:56","41.6","25.2","51.9","30.26","195","4","9.2","0.00","0.00"
"11:39:59","41.9","25.4","51.8","30.26","188","4.1","7.2","0.00","0.00"
"11:44:59","42.2","24.6","49.4","30.26","225","5.7","10.8","0.00","0.00"
"11:49:59","42.4","25.2","50.2","30.25","195","3.9","8.4","0.00","0.00"
"11:54:56","42.8","25.2","49.5","30.25","208","4.2","10.8","0.00","0.00"
"11:59:56","42.8","25.4","50","30.25","229","4.9","13.2","0.00","0.00"
"12:04:59","42.9","24.6","48.3","30.23","169","4.1","10.8","0.00","0.00"
"12:09:58","43.1","24.2","47.1","30.23","199","7.1","16.1","0.00","0.00"
"12:14:56","43.3","24.9","48","30.23","207","6.5","15","0.00","0.00"
"12:19:59","43.4","24.5","47","30.23","199","5.1","15","0.00","0.00"
"12:24:56","43.6","24.5","46.6","30.23","211","6.1","12","0.00","0.00"
"12:29:59","43.4","24.1","46.3","30.23","188","6.5","18.4","0.00","0.00"
"12:34:59","43.3","24.9","47.9","30.21","202","8","16.1","0.00","0.00"
"12:39:58","43.6","25.7","48.9","30.21","223","5.6","8.4","0.00","0.00"
"12:44:58","43.8","25.1","47.4","30.21","188","5","13.2","0.00","0.00"
"12:49:58","44","25.2","47.4","30.21","198","6.1","13.2","0.00","0.00"
"12:54:59","44","25.1","47.2","30.21","174","3.2","8.1","0.00","0.00"
"12:59:59","44","25.3","47.5","30.21","198","4.5","10.8","0.00","0.00"
"13:04:58","44.2","25.2","46.8","30.20","219","5.8","12","0.00","0.00"
"13:09:57","44.2","25.2","46.8","30.20","236","5.7","13.2","0.00","0.00"
"13:14:56","44.5","24.5","45","30.20","190","5.3","17.3","0.00","0.00"
"13:19:56","44.8","24.1","44","30.19","219","5.4","13.2","0.00","0.00"
"13:24:56","44.8","23.6","42.9","30.19","192","6.7","13.2","0.00","0.00"
"13:29:56","44.7","23.8","43.6","30.19","223","7.7","15","0.00","0.00"
"13:34:57","44.5","23.3","42.9","30.19","226","3.8","8.4","0.00","0.00"
"13:39:59","44.7","23.5","43.1","30.19","186","5.7","15","0.00","0.00"
"13:44:59","44.9","23.8","43.1","30.19","216","5.1","12","0.00","0.00"
"13:49:59","45.1","23.6","42.4","30.18","217","5","9.6","0.00","0.00"
"13:54:57","45.2","23.9","42.9","30.18","222","5.9","10.8","0.00","0.00"
"13:59:58","45.4","22.6","40.3","30.18","205","6.4","13.2","0.00","0.00"
"14:04:56","45.4","23.2","41.3","30.17","214","5.7","16.1","0.00","0.00"
"14:09:56","45.8","23.4","41","30.17","188","5.8","10.8","0.00","0.00"
"14:14:58","46","23.4","40.5","30.17","207","4.8","10.8","0.00","0.00"
"14:19:58","46.3","22.9","39.4","30.16","221","5.2","10.8","0.00","0.00"
"14:24:56","46.2","22.9","39.5","30.16","228","4.5","12","0.00","0.00"
"14:29:57","46.2","23.2","40","30.16","203","5.7","14.4","0.00","0.00"
"14:34:57","46.3","23","39.5","30.16","231","5.9","15","0.00","0.00"
"14:39:56","46.2","22.9","39.4","30.16","224","5.8","13.2","0.00","0.00"
"14:44:57","46.4","22.9","39.3","30.16","197","5.7","13.2","0.00","0.00"
"14:49:57","46.5","22.7","38.8","30.15","233","4.9","11.5","0.00","0.00"
"14:54:58","46.4","22.6","38.8","30.15","231","6","12","0.00","0.00"
"14:59:59","46.2","22.4","38.7","30.15","223","4.9","13.2","0.00","0.00"
"15:04:58","46.3","22","37.9","30.15","199","5.8","12","0.00","0.00"
"15:09:57","46.3","21.3","36.8","30.15","195","6","13.2","0.00","0.00"
"15:14:56","46.1","21","36.7","30.15","206","6","12","0.00","0.00"
"15:19:59","46.1","21.4","37.4","30.13","195","4.4","8.4","0.00","0.00"
"15:24:57","46","21.5","37.4","30.13","223","5.1","10.8","0.00","0.00"
"15:29:58","45.9","20.7","36.4","30.13","194","5.5","10.8","0.00","0.00"
"15:34:59","46","21.2","37.1","30.13","189","3.9","10.8","0.00","0.00"
"15:39:56","45.9","20.3","35.9","30.13","179","3.7","8.1","0.00","0.00"
"15:44:57","45.8","20.7","36.5","30.13","229","4.8","13.2","0.00","0.00"
"15:49:58","45.5","20.5","36.7","30.12","206","5.1","12","0.00","0.00"
"15:54:59","44.9","19.8","36.3","30.12","210","6.4","10.8","0.00","0.00"
"15:59:57","44.6","19.4","36.3","30.12","196","5.8","12","0.00","0.00"
"16:04:56","44.4","19.7","36.9","30.12","188","3.9","8.4","0.00","0.00"
"16:09:56","44.3","19.7","37.2","30.12","220","4.1","8.1","0.00","0.00"
"16:14:59","44.2","19.6","37.2","30.12","206","4.9","10.8","0.00","0.00"
"16:19:56","44","19.8","37.7","30.11","224","4.1","8.1","0.00","0.00"
"16:24:58","43.7","19.4","37.4","30.11","198","3.9","7.2","0.00","0.00"
"16:29:56","43.7","19.3","37.3","30.11","201","2.9","4.8","0.00","0.00"
"16:34:57","43.5","19.2","37.4","30.11","200","4","8.4","0.00","0.00"
"16:39:57","43.4","19.3","37.8","30.11","192","1.9","4.8","0.00","0.00"
"16:44:59","43.2","19.6","38.4","30.12","192","1.5","4.8","0.00","0.00"
"16:49:56","43","19.9","39.4","30.12","150","2.4","4.8","0.00","0.00"
"16:54:56","42.7","20.2","40.3","30.12","141","1.7","3.6","0.00","0.00"
"16:59:58","42.4","20.8","41.8","30.12","142","1.4","3.6","0.00","0.00"
"17:04:58","42.2","20.8","42.3","30.11","142","1.3","3.6","0.00","0.00"
"17:09:58","42","21.1","43","30.11","141","0.7","2.4","0.00","0.00"
"17:14:58","41.6","20.7","43","30.11","141","0.1","3.6","0.00","0.00"
"17:19:56","41.4","20.8","43.5","30.11","141","1.8","3.6","0.00","0.00"
"17:24:59","41.3","21","44","30.11","141","0.2","2.3","0.00","0.00"
"17:29:57","40.9","20.6","44","30.11","141","0","1.2","0.00","0.00"
"17:34:56","40.6","20.6","44.6","30.10","141","0.1","1.2","0.00","0.00"
"17:39:57","39.9","20.9","46.1","30.10","141","0.4","2.4","0.00","0.00"
"17:44:59","39.3","20.9","47.2","30.10","141","0","1.2","0.00","0.00"
"17:49:57","38.7","21.2","49.1","30.10","141","0.1","1.2","0.00","0.00"
"17:54:56","38","21.8","51.9","30.10","141","0.3","1.2","0.00","0.00"
"17:59:58","37.3","21.6","52.7","30.10","141","0","0","0.00","0.00"
"18:04:58","36.7","21.2","53.1","30.10","141","0","0","0.00","0.00"
"18:09:58","36.1","21.8","56","30.10","141","0.1","1.2","0.00","0.00"
"18:14:58","35.5","22.2","58.2","30.10","141","0","0","0.00","0.00"
"18:19:56","34.9","21.8","58.7","30.10","141","0","0","0.00","0.00"
"18:24:58","34.4","21.5","59","30.10","141","0","0","0.00","0.00"
"18:29:57","34","21.4","59.7","30.11","141","0","0","0.00","0.00"
"18:34:59","33.6","21.4","60.5","30.11","141","0","0","0.00","0.00"
"18:39:56","33.6","21.5","60.6","30.11","141","0.2","1.2","0.00","0.00"
"18:44:59","33.5","21.7","61.4","30.11","141","0","0","0.00","0.00"
"18:49:57","33.5","21.4","60.8","30.11","141","0","0","0.00","0.00"
"18:54:57","33.2","22.5","64.4","30.11","141","0.1","1.2","0.00","0.00"
"18:59:58","32.7","21.8","63.8","30.11","141","0","1.2","0.00","0.00"
"19:04:58","32.4","21.4","63.5","30.11","141","0","0","0.00","0.00"
"19:09:58","32.2","21.7","64.8","30.11","141","0.4","1.2","0.00","0.00"
"19:14:59","31.9","22","66.4","30.11","141","0.1","1.2","0.00","0.00"
"19:19:56","31.7","21.4","65.4","30.11","141","0","0","0.00","0.00"
"19:24:57","31.7","21.5","65.5","30.11","141","0","0","0.00","0.00"
"19:29:59","31.5","22.3","68.3","30.11","141","0","0","0.00","0.00"
"19:34:58","31.2","22.1","68.8","30.10","141","0","0","0.00","0.00"
"19:39:59","31","21.9","68.7","30.10","141","0","0","0.00","0.00"
"19:44:57","30.8","22.1","69.6","30.10","141","0","0","0.00","0.00"
"19:49:58","30.6","22","70.4","30.10","141","0.5","3.6","0.00","0.00"
"19:54:56","30.4","22.1","71","30.10","141","0.5","2.4","0.00","0.00"
"19:59:58","30.3","21.4","69.2","30.10","141","0","1.2","0.00","0.00"
"20:04:59","30.7","21.3","67.8","30.10","141","0.1","2.4","0.00","0.00"
"20:09:59","31","22.1","69.1","30.10","141","0.1","2.3","0.00","0.00"
"20:14:59","30.9","22.2","69.8","30.10","141","0","0","0.00","0.00"
"20:19:57","30.7","21.7","68.8","30.09","141","0","0","0.00","0.00"
"20:24:56","30.7","21.6","68.8","30.09","141","0.2","2.4","0.00","0.00"
"20:29:58","30.9","21.3","67.1","30.09","141","0","1.2","0.00","0.00"
"20:34:57","31.2","21.4","66.5","30.09","141","0","2.4","0.00","0.00"
"20:39:58","31.5","21.7","66.6","30.09","141","0.6","2.4","0.00","0.00"
"20:44:56","31.5","21.7","66.8","30.09","141","0","1.2","0.00","0.00"
"20:49:58","31.4","21.9","67.5","30.09","141","0","0","0.00","0.00"
"20:54:56","31","22.2","69.6","30.09","141","0","0","0.00","0.00"
"20:59:58","30.4","22.3","71.4","30.09","141","0.9","3.6","0.00","0.00"
"21:04:58","29.9","22","72","30.09","141","0.7","2.4","0.00","0.00"
"21:09:58","29.7","21.5","71.1","30.09","141","0.2","2.4","0.00","0.00"
"21:14:58","29.5","21.6","71.8","30.09","141","2.4","3.6","0.00","0.00"
"21:19:56","29.4","21.2","71","30.08","141","0.5","2.4","0.00","0.00"
"21:24:59","29.3","21.4","71.8","30.08","141","1.6","3.6","0.00","0.00"
"21:29:57","29.1","21.2","72","30.08","141","0.5","2.4","0.00","0.00"
"21:34:56","29","21.1","72.1","30.08","141","0.4","2.4","0.00","0.00"
"21:39:56","28.7","21.4","73.6","30.08","141","0","0","0.00","0.00"
"21:44:58","28.5","21.3","74","30.08","141","0","0","0.00","0.00"
"21:49:56","28.3","21.1","74","30.08","141","0.1","2.4","0.00","0.00"
"21:54:59","28.2","21","74","30.08","141","1.2","2.4","0.00","0.00"
"21:59:58","28.1","20.9","74","30.08","141","0","1.2","0.00","0.00"
"22:04:58","27.9","20.8","74.5","30.08","141","0","0","0.00","0.00"
"22:09:59","27.7","20.9","75.1","30.08","140","0.6","3.6","0.00","0.00"
"22:14:59","27.6","21","76","30.08","140","1.3","3.5","0.00","0.00"
"22:19:56","27.5","20.8","75.6","30.07","140","0.3","1.2","0.00","0.00"
"22:24:59","27.4","20.8","76","30.07","140","0.8","3.6","0.00","0.00"
"22:29:56","27.2","20.8","76.5","30.07","140","0.2","2.4","0.00","0.00"
"22:34:59","27.1","20.8","77","30.07","140","1.2","3.6","0.00","0.00"
"22:39:56","27","20.7","77","30.07","140","1.3","2.4","0.00","0.00"
"22:44:58","26.8","20.7","77.2","30.07","140","0.3","2.3","0.00","0.00"
"22:49:56","26.7","20.5","77","30.07","140","1.2","3.6","0.00","0.00"
"22:54:58","26.7","20.4","76.8","30.07","140","1.4","3.6","0.00","0.00"
"22:59:56","26.8","20.3","76.2","30.07","140","1.4","4.8","0.00","0.00"
"23:04:56","26.8","20.7","77.2","30.07","94","2.7","4.8","0.00","0.00"
"23:09:56","26.8","20.5","76.7","30.07","9","0.9","2.4","0.00","0.00"
"23:14:56","26.7","20.6","77.1","30.07","9","0.5","2.4","0.00","0.00"
"23:19:58","26.5","20.6","77.9","30.06","9","0.4","3.6","0.00","0.00"
"23:24:56","26.8","20.1","75.6","30.06","9","2.7","3.6","0.00","0.00"
"23:29:58","27.6","20.3","73.6","30.06","10","2.6","3.6","0.00","0.00"
"23:34:56","28","20.3","72.5","30.06","11","2.7","3.6","0.00","0.00"
"23:39:57","28.2","20.5","72.3","30.06","11","0.9","3.5","0.00","0.00"
"23:44:59","28","20.7","73.7","30.06","11","0.6","2.4","0.00","0.00"
"23:49:58","27.6","20.4","74.1","30.06","11","0.5","2.4","0.00","0.00"
"23:54:57","27.3","20","73.5","30.06","11","0.8","2.4","0.00","0.00"
